FW2285 Weather Reports


Display with metric or nautical units.
time (UTC)temp
F
wind
direction
speed
MPH
gust
MPH
rain 1hr
in
rain 24hr
in
rain mn
in
humidity
%
barometer
mb
20260510014526 69 323 0.0 2.0 0.00 0.01 0.01 38 1010.9
20260510013011 70 232 2.0 5.0 0.00 0.01 0.01 35 1010.8
20260510011515 71 355 1.0 10.0 0.00 0.01 0.01 36 1010.5
20260510010020 71 109 2.0 10.0 0.00 0.01 0.01 34 1010.3
20260510004509 72 288 1.0 5.0 0.00 0.01 0.01 34 1010.3
20260510003008 72 319 2.0 7.0 0.00 0.01 0.01 34 1009.9
20260510001507 72 336 0.0 4.0 0.00 0.01 0.01 37 1009.6
20260510000007 72 300 2.0 7.0 0.00 0.01 0.01 35 1009.5
20260509234509 73 313 1.0 5.0 0.00 0.01 0.01 36 1009.7
20260509233006 73 322 1.0 6.0 0.00 0.01 0.01 34 1009.8
20260509231504 74 13 1.0 4.0 0.00 0.01 0.01 32 1009.7
20260509230013 74 302 2.0 8.0 0.00 0.02 0.01 31 1009.3
20260509224503 75 299 4.0 10.0 0.00 0.02 0.01 29 1009.1
20260509223002 78 257 4.0 17.0 0.00 0.02 0.01 25 1008.6
20260509221502 81 268 4.0 11.0 0.00 0.02 0.01 21 1008.0
20260509220002 82 139 4.0 10.0 0.00 0.13 0.01 18 1007.8
20260509214600 82 133 3.0 10.0 0.00 0.13 0.01 19 1007.8
20260509213115 83 296 2.0 14.0 0.00 0.13 0.01 21 1007.9
20260509211604 83 229 3.0 11.0 0.00 0.13 0.01 24 1007.8
20260509210055 82 266 5.0 12.0 0.00 0.14 0.01 21 1008.2
20260509204553 81 238 3.0 9.0 0.00 0.14 0.01 23 1008.4
20260509203053 81 246 1.0 10.0 0.00 0.14 0.01 23 1008.6
20260509201553 82 265 3.0 9.0 0.00 0.14 0.01 21 1008.5
20260509200053 82 208 2.0 9.0 0.00 0.14 0.01 25 1008.8
20260509194556 82 236 2.0 7.0 0.00 0.14 0.01 24 1008.9
20260509193047 83 254 1.0 7.0 0.00 0.14 0.01 32 1009.2
20260509191554 82 98 2.0 8.0 0.00 0.14 0.01 29 1009.3
20260509190046 80 185 2.0 9.0 0.00 0.14 0.01 28 1009.6
20260509184541 81 325 3.0 8.0 0.00 0.14 0.01 30 1009.7
20260509183039 80 211 2.0 8.0 0.00 0.14 0.01 29 1010.0
20260509181537 79 214 3.0 8.0 0.00 0.14 0.01 30 1010.1
20260509180048 79 202 1.0 5.0 0.00 0.14 0.01 33 1010.2
20260509174534 78 247 1.0 5.0 0.00 0.14 0.01 35 1010.3
20260509173034 76 269 2.0 7.0 0.00 0.14 0.01 34 1010.5
20260509171535 76 142 0.0 9.0 0.00 0.14 0.01 34 1010.6
20260509170026 74 103 0.0 4.0 0.00 0.14 0.01 39 1010.7
20260509164523 74 253 1.0 5.0 0.00 0.14 0.01 41 1010.7
20260509163019 73 169 2.0 4.0 0.00 0.14 0.01 43 1010.5
20260509161517 72 227 1.0 4.0 0.00 0.14 0.01 44 1010.5
20260509160016 71 263 0.0 5.0 0.00 0.14 0.01 44 1010.5
20260509154512 70 214 0.0 3.0 0.00 0.14 0.01 46 1010.7
20260509153026 69 271 2.0 6.0 0.00 0.14 0.01 44 1010.6
20260509151506 67 140 1.0 5.0 0.00 0.14 0.01 43 1010.6
20260509150003 67 257 1.0 5.0 0.00 0.14 0.01 46 1010.5
20260509144600 65 266 1.0 9.0 0.00 0.14 0.01 45 1010.5
20260509143059 64 250 1.0 5.0 0.00 0.14 0.01 50 1010.4
20260509141552 63 244 3.0 7.0 0.00 0.14 0.01 53 1010.4
20260509134544 59 232 1.0 3.0 0.00 0.14 0.01 67 1010.6
20260509133040 57 315 1.0 4.0 0.00 0.14 0.01 68 1010.3
20260509131537 56 318 0.0 2.0 0.00 0.14 0.01 69 1010.4
20260509130033 55 295 1.0 3.0 0.00 0.14 0.01 70 1010.3
20260509124528 54 323 0.0 3.0 0.00 0.14 0.01 70 1010.1
20260509123025 53 329 1.0 3.0 0.00 0.14 0.01 70 1010.1
20260509121520 52 278 0.0 1.0 0.00 0.14 0.01 70 1009.9
20260509120018 50 278 0.0 0.0 0.00 0.14 0.01 70 1009.8
20260509114518 49 278 0.0 0.0 0.00 0.14 0.01 70 1009.6
20260509113018 48 278 0.0 0.0 0.01 0.14 0.01 70 1009.2
20260509111517 48 278 0.0 0.0 0.01 0.14 0.01 70 1009.2
20260509110017 49 278 0.0 0.0 0.01 0.14 0.01 70 1009.1
20260509104516 50 278 0.0 0.0 0.01 0.14 0.01 70 1009.2
20260509103016 51 278 0.0 1.0 0.00 0.13 0.00 70 1009.1
20260509101514 51 278 0.0 0.0 0.00 0.13 0.00 70 1009.3
20260509100013 50 278 0.0 0.0 0.00 0.13 0.00 70 1009.2
20260509094514 50 278 0.0 1.0 0.00 0.13 0.00 70 1009.3
20260509093011 49 278 0.0 0.0 0.00 0.13 0.00 70 1009.2
20260509091510 48 278 0.0 0.0 0.00 0.13 0.00 70 1009.1
20260509090010 48 278 0.0 0.0 0.00 0.13 0.00 70 1009.1
20260509084508 49 278 0.0 0.0 0.00 0.13 0.00 70 1009.0
20260509083009 49 278 0.0 0.0 0.00 0.13 0.00 70 1009.0
20260509081508 49 278 0.0 0.0 0.00 0.13 0.00 70 1009.1
20260509080007 48 278 0.0 0.0 0.00 0.13 0.00 69 1009.1
20260509074505 49 278 0.0 0.0 0.00 0.13 0.00 69 1009.0
20260509073010 49 278 0.0 0.0 0.00 0.13 0.00 69 1009.1
20260509071504 50 278 0.0 0.0 0.00 0.13 0.00 69 1009.2
20260509070001 50 278 0.0 0.0 0.00 0.13 0.00 69 1009.4
20260509064601 49 278 0.0 0.0 0.00 0.13 0.00 69 1009.6
20260509063105 49 278 0.0 0.0 0.00 0.13 0.00 69 1009.6
20260509061559 49 278 0.0 0.0 0.00 0.13 0.00 69 1009.6
20260509060117 49 278 0.0 0.0 0.00 0.13 0.00 68 1009.7
20260509054556 49 278 0.0 0.0 0.00 0.13 0.00 69 1009.7
20260509053111 49 278 0.0 0.0 0.00 0.13 0.00 68 1009.7
20260509051603 50 278 0.0 0.0 0.00 0.13 0.00 68 1009.7
20260509050053 50 278 0.0 0.0 0.00 0.13 0.13 68 1009.8
20260509044551 50 278 0.0 0.0 0.00 0.13 0.13 67 1009.7
20260509043055 50 278 0.0 0.0 0.00 0.13 0.13 67 1009.8
20260509041549 51 278 0.0 0.0 0.00 0.13 0.13 67 1010.0
20260509034546 51 278 0.0 0.0 0.00 0.13 0.13 66 1010.1
20260509033107 52 278 0.0 0.0 0.00 0.13 0.13 65 1010.1
20260509031543 52 278 0.0 0.0 0.00 0.13 0.13 64 1009.9
20260509030043 52 278 0.0 0.0 0.00 0.13 0.13 64 1009.8
20260509024547 53 278 0.0 0.0 0.00 0.13 0.13 63 1009.4
20260509023039 54 278 0.0 0.0 0.00 0.13 0.13 62 1009.5
20260509021539 54 278 0.0 0.0 0.00 0.13 0.13 61 1009.5
20260509020038 55 278 0.0 0.0 0.00 0.13 0.13 60 1009.3